[[{"header":{"parameterUnit":"m.s-1","parameterCategory":1,"la1":30.2991,"la2":30.254,"lo1":-89.0895,"lo2":-89.0444,"dy":0.0017,"dx":0.0017,"nx":28,"ny":28,"refTime":"2024-05-26T09:00:00:Z","depth":0,"parameterNumber":2,"parameterNumberName":"U-component_of_WINDS"},"data":[0,0,0,0,0,0,0,0,0,0,0,0,0,0,0,0,0,0,0,0,0,0,0,0,0,0,0,0,0,0,0,0,0,0,0,0,0,0,0,0,0,0,0,0,0,0,0,0,0,0,0,0,0,0,0,0,0,0,1.402,1.4021,0,1.4189,1.4191,1.4193,1.4189,1.4186,1.4184,1.4182,1.4357,1.4363,1.437,0,0,0,0,0,0,0,0,0,0,0,0,0,1.3694,1.37,1.4019,1.4022,1.4024,1.4189,1.4191,1.4193,1.4189,1.4186,1.4183,1.4181,1.4354,1.4362,1.4371,0,0,0,0,0,0,0,0,0,0,0,0,0,1.3846,1.3702,1.4019,1.4041,1.4045,1.4188,1.4191,1.4194,1.419,1.4186,1.4183,1.4179,1.4352,1.4362,1.4372,1.4504,0,0,1.4403,1.4407,0,0,0,0,0,0,0,0,1.3838,1.3858,1.4036,1.404,1.4044,1.4164,1.414,1.4298,1.419,1.4135,1.4182,1.4178,1.4295,1.431,1.435,1.4513,1.452,1.4404,1.441,1.4414,1.4417,0,0,0,0,0,0,0,1.3827,1.3851,1.4086,1.4039,1.4044,1.4043,1.4061,1.417,1.4233,1.4139,1.4139,1.4159,1.4297,1.434,1.4354,1.4523,1.4404,1.4413,1.4419,1.4423,1.4804,1.4808,0,0,0,0,0,0,1.3812,1.3842,1.4081,1.4092,1.393,1.4052,1.4072,1.4129,1.4231,1.4244,1.4162,1.4159,1.4324,1.4342,1.436,1.4523,1.4414,1.4424,1.443,1.48,1.4805,1.481,0,0,0,0,0,0,1.3805,1.3833,1.4074,1.3967,1.3998,1.4061,1.4126,1.4134,1.4177,1.4249,1.426,1.4194,1.4322,1.4345,1.4469,1.4529,1.4429,1.4438,1.4796,1.4802,1.4807,1.485,0,0,0,0,0,0,1.3795,1.3831,1.3881,1.3968,1.4003,1.418,1.4129,1.414,1.4194,1.4191,1.4282,1.4293,1.4321,1.4453,1.4479,1.4541,1.4446,1.4791,1.4798,1.4806,1.4843,1.4856,1.4868,0,0,0,0,0,1.3784,1.3886,1.3884,1.3913,1.4068,1.4183,1.4204,1.4233,1.4199,1.4251,1.4297,1.429,1.4518,1.4466,1.4495,1.4561,1.4787,1.4796,1.4805,1.4838,1.4854,1.4867,0,0,0,0,0,0,1.3805,1.3898,1.3896,1.403,1.4099,1.4182,1.4249,1.4249,1.4329,1.4323,1.4356,1.4377,1.4501,1.4543,1.4483,1.4695,1.4648,1.4663,1.4663,1.4679,1.4691,1.4679,1.4454,0,0,0,0,0,1.3825,1.391,1.3987,1.4098,1.4132,1.4185,1.4236,1.4253,1.4326,1.4355,1.441,1.4481,1.4569,1.4626,1.4711,1.4849,1.4869,1.4909,1.4921,1.493,1.4944,1.5021,1.504,1.4839,1.4839,1.4839,0,0,1.3868,1.3929,1.3981,1.4104,1.4159,1.4248,1.4209,1.4304,1.4371,1.4369,1.449,1.4533,1.4615,1.4746,1.4807,1.4785,1.5004,1.4942,1.4949,1.4957,1.5033,1.5051,1.5068,1.4845,1.4844,1.4843,0,0,1.3991,1.4045,1.4144,1.42,1.4285,1.4319,1.4342,1.4427,1.4455,1.4576,1.4577,1.4657,1.4807,1.4866,1.4915,1.5061,1.5059,1.5088,1.5152,1.5227,1.5243,1.5258,1.5311,1.533,1.51,1.51,1.5101,0,1.4033,1.4166,1.4195,1.4291,1.4345,1.4348,1.4449,1.4502,1.461,1.4648,1.4622,1.4811,1.4866,1.5012,1.5048,1.5087,1.5116,1.5078,1.5239,1.5253,1.5267,1.5319,1.5339,1.5104,1.5103,1.5103,1.5103,0,1.4215,1.4308,1.4377,1.4482,1.4544,1.4642,1.4686,1.4745,1.4756,1.4793,1.4917,1.4984,1.5082,1.5118,1.513,1.5266,1.5251,1.5231,1.5185,1.5289,1.5338,1.5358,1.5108,1.5107,1.5106,1.5105,0,0,1.4357,1.4476,1.4501,1.4549,1.4642,1.4715,1.4813,1.4909,1.4961,1.5035,1.5119,1.5246,1.5229,1.5285,1.5304,1.537,1.5483,1.5343,1.5345,1.5368,1.564,1.5655,1.5677,1.5481,1.5485,1.5488,1.5633,0,1.4491,1.4666,1.4695,1.4848,1.4935,1.4939,1.5024,1.5091,1.5129,1.5208,1.5249,1.5339,1.5309,1.5344,1.5409,1.5455,1.5538,1.5445,1.5561,1.5565,1.5542,1.5702,1.5719,1.5852,1.5652,1.5656,1.5658,0,1.4671,1.4751,1.4913,1.4996,1.5033,1.511,1.5201,1.5276,1.5353,1.5375,1.5438,1.5449,1.5552,1.55,1.5644,1.558,1.5629,1.5659,1.5665,1.5678,1.5619,1.5722,1.5896,1.5916,1.5688,1.5686,1.5684,0,1.4761,1.4908,1.5024,1.5065,1.5164,1.5218,1.5262,1.5335,1.5391,1.5471,1.5508,1.5598,1.5648,1.5719,1.5754,1.5713,1.5896,1.5846,1.5919,1.5918,1.5958,1.5956,1.6144,1.5987,1.5987,1.5986,1.5986,0,1.4909,1.5008,1.5066,1.5138,1.525,1.5282,1.5392,1.5434,1.5499,1.558,1.5588,1.5664,1.5705,1.5787,1.5816,1.5931,1.5953,1.5975,1.5982,1.5976,1.5973,1.6009,1.6002,1.5992,1.5991,1.599,1.5989,0,1.5028,1.507,1.5198,1.5281,1.5304,1.5383,1.5455,1.5525,1.5562,1.5664,1.569,1.5748,1.5845,1.5887,1.6007,1.6026,1.6158,1.6157,1.6133,1.6136,1.6206,1.62,1.6426,1.6458,1.6278,1.628,1.6281,0,1.512,1.5197,1.5289,1.5343,1.5389,1.5476,1.5534,1.5569,1.5629,1.5722,1.5781,1.5879,1.5958,1.6113,1.6167,1.6259,1.6261,1.6334,1.6275,1.6266,1.6264,1.626,1.6269,1.6345,1.6347,1.6348,1.635,0,1.528,1.5298,1.538,1.5471,1.554,1.5613,1.5684,1.5729,1.5774,1.5842,1.5941,1.6003,1.6125,1.6222,1.6317,1.6363,1.6365,1.6368,1.639,1.6385,1.6368,1.638,1.6164,1.6363,1.6361,1.636,1.636,1.6359,1.539,1.5459,1.5535,1.5627,1.5684,1.5751,1.5822,1.5868,1.5951,1.6053,1.6068,1.6175,1.625,1.6378,1.6428,1.6512,1.6494,1.6525,1.6534,1.6541,1.6547,1.6353,1.6529,1.6529,1.6529,1.6528,1.6528,0,1.5552,1.5601,1.5685,1.5786,1.5859,1.5853,1.5932,1.5994,1.6087,1.6157,1.6236,1.6351,1.6445,1.6505,1.6601,1.6657,1.666,1.6681,1.6678,1.6689,1.6556,1.6529,1.6677,1.6677,1.6677,1.6676,1.6676,1.6676,1.5645,1.5762,1.5788,1.5934,1.5983,1.6087,1.6133,1.6195,1.6251,1.6379,1.6458,1.6496,1.6563,1.6663,1.675,1.6765,1.6801,1.6823,1.6838,1.6713,1.6698,1.6683,1.6658,1.683,1.683,1.6963,1.6965,1.6966]},{"header":{"parameterUnit":"m.s-1","parameterCategory":1,"la1":30.2991,"la2":30.254,"lo1":-89.0895,"lo2":-89.0444,"dy":0.0017,"dx":0.0017,"nx":28,"ny":28,"refTime":"2024-05-26T09:00:00:Z","depth":0,"parameterNumber":3,"parameterNumberName":"V-component_of_WINDS"},"data":[0,0,0,0,0,0,0,0,0,0,0,0,0,0,0,0,0,0,0,0,0,0,0,0,0,0,0,0,0,0,0,0,0,0,0,0,0,0,0,0,0,0,0,0,0,0,0,0,0,0,0,0,0,0,0,0,0,0,4.1779,4.178,0,4.1919,4.192,4.1922,4.1896,4.1893,4.1891,4.1888,4.2024,4.203,4.2035,0,0,0,0,0,0,0,0,0,0,0,0,0,4.1479,4.1485,4.1778,4.178,4.1782,4.1919,4.192,4.1922,4.1896,4.1893,4.189,4.1887,4.2022,4.2029,4.2036,0,0,0,0,0,0,0,0,0,0,0,0,0,4.1613,4.1487,4.1778,4.1786,4.1788,4.1918,4.1921,4.1923,4.1897,4.1893,4.1889,4.1886,4.202,4.2028,4.2037,4.2166,0,0,4.2064,4.2068,0,0,0,0,0,0,0,0,4.1605,4.1624,4.1783,4.1785,4.1788,4.1886,4.1865,4.2004,4.1898,4.1855,4.1888,4.1884,4.198,4.1992,4.2027,4.2173,4.2179,4.2065,4.207,4.2074,4.2077,0,0,0,0,0,0,0,4.1596,4.1618,4.1834,4.1785,4.1788,4.1779,4.1794,4.1891,4.1937,4.1858,4.1857,4.1874,4.1981,4.2018,4.203,4.2181,4.2065,4.2073,4.2078,4.2082,4.2439,4.2443,0,0,0,0,0,0,4.1586,4.161,4.1829,4.1838,4.1686,4.1787,4.1804,4.1858,4.1936,4.1944,4.1877,4.1873,4.2005,4.2019,4.2034,4.2191,4.2074,4.2082,4.2087,4.2435,4.244,4.2444,0,0,0,0,0,0,4.1579,4.1606,4.1824,4.1724,4.1751,4.1797,4.1857,4.1863,4.19,4.195,4.1957,4.1908,4.2002,4.2022,4.2134,4.2195,4.2086,4.2094,4.243,4.2436,4.2442,4.2506,0,0,0,0,0,0,4.1571,4.1603,4.1655,4.1725,4.1756,4.1924,4.1861,4.1868,4.1916,4.1911,4.198,4.1988,4.2001,4.2121,4.2143,4.2206,4.2101,4.2425,4.2433,4.244,4.2498,4.2513,4.2526,0,0,0,0,0,4.156,4.1666,4.1658,4.1685,4.1823,4.1928,4.1945,4.1961,4.1921,4.1973,4.2004,4.1986,4.2185,4.2133,4.2157,4.2223,4.2421,4.243,4.244,4.2492,4.251,4.2526,0,0,0,0,0,0,4.1599,4.1675,4.1667,4.1799,4.1858,4.1923,4.1988,4.1979,4.2048,4.204,4.2053,4.2069,4.2184,4.2214,4.2155,4.2352,4.2297,4.2312,4.2328,4.2346,4.236,4.235,4.2109,0,0,0,0,0,4.1623,4.1705,4.1766,4.1876,4.1906,4.1942,4.1989,4.1996,4.2055,4.2079,4.2119,4.2176,4.2251,4.23,4.2372,4.2502,4.2516,4.2559,4.2573,4.2584,4.2597,4.2667,4.2687,4.2475,4.2475,4.2475,0,0,4.1673,4.1725,4.1776,4.1885,4.1932,4.2013,4.1963,4.2052,4.2112,4.2091,4.2201,4.2232,4.2296,4.2418,4.2474,4.2447,4.2659,4.2596,4.2605,4.2612,4.2679,4.2699,4.2717,4.2481,4.248,4.2479,0,0,4.1807,4.1855,4.1953,4.2,4.2072,4.2095,4.2118,4.2185,4.2206,4.2317,4.2303,4.2373,4.2503,4.2549,4.2589,4.2739,4.2724,4.2762,4.2835,4.2903,4.292,4.2935,4.2988,4.3007,4.2774,4.2774,4.2774,0,4.186,4.1986,4.2003,4.2094,4.2142,4.213,4.2227,4.2271,4.2361,4.2393,4.2362,4.2525,4.2567,4.2699,4.2736,4.2769,4.2794,4.2755,4.2917,4.2932,4.2946,4.2997,4.3017,4.2778,4.2778,4.2777,4.2777,0,4.2047,4.2135,4.2204,4.2295,4.235,4.2444,4.2472,4.2525,4.2527,4.2553,4.2664,4.2714,4.2796,4.2827,4.2829,4.296,4.2941,4.2914,4.2858,4.297,4.3018,4.3038,4.2784,4.2783,4.2782,4.2781,0,0,4.221,4.231,4.2335,4.2376,4.2453,4.2519,4.261,4.2693,4.2739,4.28,4.2876,4.2986,4.2961,4.3007,4.3013,4.3073,4.3189,4.3038,4.3039,4.3064,4.3335,4.3356,4.3379,4.3179,4.3183,4.3186,4.333,0,4.2352,4.2518,4.2535,4.2682,4.2762,4.2751,4.283,4.2884,4.291,4.2979,4.3006,4.3084,4.3046,4.3073,4.3132,4.3162,4.3243,4.3152,4.3248,4.3251,4.3233,4.3404,4.3426,4.356,4.3349,4.3352,4.3354,0,4.254,4.261,4.2766,4.2832,4.2866,4.2938,4.3015,4.3082,4.3142,4.3156,4.3208,4.3206,4.3297,4.3238,4.3363,4.3301,4.334,4.3361,4.3366,4.3376,4.331,4.3418,4.3604,4.3624,4.3384,4.3382,4.338,0,4.2643,4.2776,4.2887,4.2922,4.3002,4.3053,4.3087,4.3145,4.3193,4.3259,4.329,4.3364,4.3405,4.3461,4.3478,4.3434,4.3603,4.3545,4.3616,4.3615,4.3652,4.365,4.3847,4.3677,4.3677,4.3677,4.3676,0,4.28,4.2896,4.2935,4.3003,4.3109,4.3126,4.323,4.3262,4.3312,4.3384,4.3377,4.3444,4.3462,4.3532,4.3545,4.3646,4.3664,4.3677,4.3679,4.3678,4.3677,4.3705,4.3696,4.3682,4.3681,4.368,4.3679,0,4.2934,4.2965,4.3085,4.3151,4.317,4.3245,4.33,4.3364,4.3388,4.3479,4.3501,4.3539,4.362,4.3643,4.3739,4.3748,4.3867,4.386,4.3848,4.3848,4.3917,4.3911,4.414,4.417,4.398,4.3982,4.3983,0,4.3033,4.3107,4.3181,4.3231,4.3269,4.3348,4.3398,4.3416,4.3468,4.3542,4.3597,4.3678,4.3744,4.3873,4.3907,4.398,4.3976,4.4051,4.3986,4.3983,4.3977,4.3973,4.398,4.4063,4.4065,4.4067,4.4068,0,4.3204,4.3216,4.329,4.337,4.343,4.3493,4.3553,4.3592,4.3619,4.3677,4.3762,4.3813,4.3913,4.3992,4.4066,4.4099,4.4088,4.4088,4.4108,4.4108,4.4098,4.4104,4.3882,4.4083,4.4081,4.408,4.4079,4.4079,4.3324,4.3389,4.3453,4.3535,4.3582,4.3639,4.3702,4.3736,4.3808,4.3892,4.3898,4.3989,4.4045,4.4144,4.4181,4.425,4.4228,4.4257,4.4265,4.4272,4.4278,4.4087,4.4264,4.4263,4.4263,4.4263,4.4262,0,4.3496,4.3536,4.3612,4.3697,4.3762,4.3748,4.3813,4.3867,4.3949,4.4004,4.4069,4.4165,4.4242,4.4283,4.4358,4.4406,4.4403,4.4426,4.4422,4.443,4.4294,4.4269,4.4427,4.4427,4.4427,4.4427,4.4427,4.4427,4.3593,4.3702,4.3721,4.3853,4.3891,4.3984,4.4022,4.4073,4.4117,4.4226,4.4291,4.4318,4.4366,4.4445,4.4514,4.4524,4.4552,4.4577,4.4584,4.4456,4.4439,4.4423,4.44,4.4583,4.4584,4.4714,4.4716,4.4717]}]]